Location: Bletchingley
(51.2333°N, 0.1000°W)
Time: 01:31:27
(UTC+00:00)

ATLAS CENTAUR R/B - Pass Details

Date: 18 September 2020
Orbit: 479 x 667 km, 64.7° (Epoch: 12 October)

Event Time Altitude Azimuth Distance (km) Brightness Sun altitude
Rises 21:07:24 0° 305° (NW) 2,594 6.1 -26.6°
Reaches altitude 10° 21:11:19 10° 346° (NNW) 1,681 4.5 -27.1°
Maximum altitude 21:12:10 11° 359° (N) 1,639 4.2 -27.2°
Drops below altitude 10° 21:13:01 10° 12° (NNE) 1,673 4.1 -27.3°
Enters shadow 21:13:42 - 22° (NNE) 1,753 4.1 -27.3°
